SCP
1 1 1 0 0 0 0 0 0 0 0 0 0 0 0 1 1 1 1 1 1 1 0 0 0 0 0 0 0 0 0 0 0 0 0 0 0 0 0 0 0 0 0 0
1 1 0 0 0 0 0 0 0 0 0 0 1 0 0 1 1 1 1 1 1 0 0 0 0 0 0 0 0 0 0 0 0 0 0 0 0 0 0 0 0 0 0 0
0 0 0 0 0 0 0 0 0 0 0 0 0 0 0 1 1 1 1 1 1 0 0 0 0 0 0 0 0 0 0 0 0 0 0 0 0 0 0 0 0 0 0 0
0 0 0 0 0 0 0 0 0 0 0 0 0 0 0 1 1 1 1 1 0 0 1 1 0 0 0 0 0 0 0 0 0 0 0 0 0 0 0 0 0 0 0 0
0 0 0 0 0 0 0 0 0 0 0 0 0 0 0 0 0 0 1 1 1 1 1 1 1 0 0 0 0 0 0 0 0 0 0 0 0 0 0 0 0 0 0 0
0 0 0 0 0 0 0 0 0 0 0 0 0 0 0 0 0 0 1 1 1 1 1 1 1 0 0 0 0 0 0 0 0 0 0 0 0 0 0 0 0 0 0 0
0 0 0 0 0 0 0 0 0 0 0 0 0 0 0 0 0 0 1 1 1 1 1 1 1 1 0 0 0 0 0 0 0 0 0 0 0 0 0 0 0 0 0 0
0 0 0 0 0 0 0 0 0 0 0 0 0 0 0 0 0 0 0 1 1 1 1 1 1 1 1 0 0 0 0 0 0 0 0 0 0 0 0 0 0 0 0 0
0 0 0 0 0 0 0 0 0 0 0 0 0 0 0 0 0 0 0 0 1 1 1 2 2 2 1 1 0 0 0 0 0 0 0 0 0 0 0 0 0 0 0 0
0 0 0 0 0 0 0 0 0 0 0 0 0 0 0 0 0 0 0 0 0 0 1 1 2 2 1 1 0 0 0 0 0 0 0 0 0 0 0 0 0 0 0 0
0 0 0 0 0 0 0 0 0 0 0 0 0 0 0 0 0 0 0 0 0 0 0 1 1 1 1 1 0 0 0 0 0 0 0 0 0 0 0 0 0 0 0 0
0 0 0 0 0 0 0 0 0 0 0 0 0 0 0 0 0 0 0 0 0 0 0 0 1 1 1 1 0 0 0 0 0 0 0 0 0 0 0 0 0 0 0 0
0 0 0 0 0 0 0 0 0 0 0 0 0 0 0 0 0 0 0 0 0 0 0 0 1 1 1 1 0 0 0 0 0 0 0 0 0 0 0 0 0 0 0 0
0 0 0 0 0 0 0 0 0 0 0 0 0 0 0 0 0 0 0 0 0 0 0 0 0 1 1 1 0 0 0 0 0 0 0 0 0 0 0 0 0 0 0 0
0 0 0 0 0 0 0 0 0 0 0 0 0 0 0 0 0 0 0 0 0 0 0 0 0 0 1 1 0 0 0 0 0 0 0 0 0 0 0 0 0 0 0 0
0 0 0 0 0 0 0 0 0 0 0 0 0 0 0 0 0 0 0 0 0 0 0 0 0 0 0 0 0 0 0 0 0 0 0 0 0 0 0 0 0 0 0 0
0 0 0 0 0 0 0 0 0 0 0 0 0 0 0 0 0 0 0 0 0 0 0 0 0 0 0 0 0 0 0 0 0 0 0 0 0 0 0 0 0 0 0 0
0 0 0 0 0 0 0 0 0 0 0 0 0 0 0 0 0 0 0 0 0 0 0 0 0 0 0 0 0 0 0 0 0 0 0 0 0 0 0 0 0 0 0 0
0 0 0 0 0 0 0 0 0 0 0 0 0 0 0 0 0 0 0 0 0 0 0 0 0 0 0 0 0 0 0 0 0 0 0 0 0 0 0 0 0 0 0 0
0 0 0 0 0 0 0 0 0 0 0 0 0 0 0 0 0 0 0 0 0 0 0 0 0 0 0 0 0 0 0 0 0 0 0 0 0 0 0 0 0 0 0 0
0 0 0 0 0 0 0 0 0 0 0 0 0 0 0 0 0 0 0 0 0 0 0 0 0 0 0 0 0 0 0 0 0 0 0 0 0 0 0 0 0 0 0 0
0 0 0 0 0 0 0 0 0 0 0 0 0 0 0 0 0 0 0 0 0 0 0 0 0 0 0 0 0 0 0 0 0 0 0 0 0 0 0 0 0 0 0 0
0 0 0 0 0 0 0 0 0 0 0 0 0 0 0 0 0 0 0 0 0 0 0 0 0 0 0 0 0 0 0 0 0 0 0 0 0 0 0 0 0 0 0 0
0 0 0 0 0 0 0 0 0 0 0 0 0 0 0 0 0 0 0 0 0 0 0 0 0 0 0 0 0 0 0 0 0 0 0 0 0 0 0 0 0 0 0 0
0 0 0 0 0 0 0 0 0 0 0 0 0 0 0 0 0 0 0 0 0 0 0 0 0 0 0 0 0 0 0 0 0 0 0 0 0 0 0 0 0 0 0 0
0 0 0 0 0 0 0 0 0 0 0 0 0 0 0 0 0 0 0 0 0 0 0 0 0 0 0 0 0 0 0 0 0 0 0 0 0 0 0 0 0 0 0 0
Wind_Speed
10 7 7 10 11 8 5 5 4 4 7 7 7 7 7 10 9 8 8 8 9 9 10 9 8 6 5 4 3 4 3 3 3 2 2 2 2 2 2 2 3 3 4 4
8 10 11 11 8 7 7 5 4 4 4 5 5 6 5 7 10 9 7 7 7 9 10 10 8 7 4 4 4 3 3 4 4 2 1 0 1 1 1 1 1 3 3 4
8 6 8 8 6 6 5 3 3 4 4 6 6 6 6 5 6 7 7 5 5 8 9 11 8 7 5 4 4 3 3 4 4 2 1 2 1 2 1 1 1 2 2 2
6 5 6 6 4 5 4 4 5 5 4 4 5 4 4 8 8 8 7 6 4 6 7 9 8 7 6 5 5 3 3 3 3 2 2 1 1 1 2 2 1 2 1 1
3 4 4 4 4 4 3 4 6 6 5 6 6 5 2 6 8 8 8 7 6 7 7 9 9 7 6 6 5 3 3 3 3 2 2 0 1 1 1 2 2 2 1 1
3 3 3 3 3 2 2 5 7 7 5 6 5 3 1 3 5 7 8 7 7 7 7 8 8 7 6 6 5 3 3 3 2 0 1 1 1 1 2 2 2 2 1 1
5 4 4 3 3 3 5 4 3 2 2 3 2 3 1 4 4 4 7 8 7 7 7 7 8 8 6 6 5 4 4 3 3 1 1 1 1 1 1 1 2 2 2 1
3 5 6 5 4 4 6 5 1 2 3 3 4 3 5 7 5 4 5 7 7 7 7 7 8 8 7 7 6 5 5 4 3 2 1 0 2 0 1 1 2 2 1 1
2 2 5 4 3 4 3 3 4 5 7 6 3 5 7 7 6 4 5 6 6 7 7 7 7 8 7 7 6 5 5 4 3 2 1 1 1 1 1 2 1 1 2 2
4 2 4 4 4 5 6 5 3 4 4 4 2 1 5 6 6 6 6 6 7 7 8 7 7 8 7 7 6 6 5 4 4 3 2 2 1 1 0 2 2 2 2 2
5 1 4 6 6 6 6 5 4 3 4 3 3 3 4 4 4 4 5 6 7 7 7 7 7 7 7 7 7 6 5 4 4 3 2 2 2 1 1 1 1 1 1 1
4 3 3 6 4 2 4 5 5 4 4 5 3 0 3 4 3 3 3 4 6 6 7 7 7 7 7 7 7 7 6 5 4 3 2 2 2 1 0 1 1 2 1 1
7 4 2 2 2 3 5 5 5 5 5 5 5 0 3 3 3 3 4 4 5 6 7 7 7 7 7 7 7 7 6 5 5 4 3 2 2 1 1 1 1 2 2 1
3 5 3 4 4 4 5 5 5 6 6 6 6 5 2 1 1 2 3 5 5 6 6 7 7 7 7 7 7 6 6 6 5 5 4 3 2 2 1 1 1 1 2 2
5 7 7 7 7 7 7 7 7 8 8 9 9 7 7 4 1 1 3 4 5 6 6 7 8 7 8 7 7 6 6 6 6 5 4 3 3 3 1 1 1 1 2 3
6 8 10 9 8 9 9 9 9 10 10 10 9 8 6 3 1 1 2 3 4 5 6 7 9 9 9 8 7 7 6 6 6 6 5 4 3 3 2 1 0 1 1 2
7 9 10 10 10 10 9 7 7 7 7 7 7 5 4 4 3 2 2 3 3 4 5 6 7 8 9 9 9 8 7 7 6 6 6 5 4 3 3 2 1 1 1 0
10 10 7 9 10 10 4 1 2 4 5 5 5 4 4 4 3 2 1 2 3 3 4 5 5 6 7 8 9 9 8 7 7 6 6 6 4 4 3 2 1 1 1 1
8 8 7 7 9 9 5 2 2 3 5 4 3 4 3 4 4 1 2 1 1 3 3 4 4 4 5 7 8 9 9 8 7 6 6 6 5 4 3 3 2 1 1 1
5 6 7 8 10 8 3 3 2 3 4 3 3 3 3 3 3 2 2 1 2 3 3 3 3 3 4 5 7 7 8 8 8 7 6 6 6 5 4 3 2 2 1 1
6 7 8 9 11 6 3 2 1 3 3 5 6 6 5 4 4 4 4 2 2 2 3 3 3 3 4 5 6 7 7 7 7 7 6 6 6 6 5 4 3 2 2 1
9 6 6 7 9 4 4 2 3 4 5 6 6 6 7 6 6 5 4 2 0 2 3 4 4 3 4 5 5 6 6 6 7 7 6 6 6 5 5 4 3 2 2 2
7 6 5 5 3 3 4 5 5 6 6 6 6 6 6 7 6 5 3 2 1 2 3 4 4 4 4 4 5 6 5 6 7 7 7 6 6 5 4 4 3 2 1 1
10 9 9 9 5 4 5 5 5 5 5 6 6 6 6 7 7 6 5 3 2 2 3 4 5 5 5 5 5 5 6 6 7 7 7 6 6 5 4 3 2 2 1 1
10 10 11 12 9 7 5 5 6 6 7 7 7 7 7 7 7 7 6 5 3 2 3 4 5 5 6 5 6 5 6 7 7 8 7 7 6 5 5 4 2 3 2 2
12 12 11 10 9 10 8 8 10 9 8 9 9 9 8 8 7 7 6 5 3 3 3 4 5 5 6 6 6 6 7 7 7 7 6 5 5 5 5 5 4 4 4 5
Wind_Direction
192 202 213 218 219 233 255 255 248 247 224 226 232 239 205 187 190 204 206 200 187 174 162 145 137 140 148 137 113 101 110 102 85 47 11 13 3 357 9 19 20 357 354 347
188 213 220 222 216 231 256 264 266 284 265 258 251 247 234 193 194 200 210 207 183 158 151 142 147 154 158 135 120 116 110 100 92 80 354 327 23 330 11 355 16 6 358 354
204 213 218 225 226 226 253 273 281 278 284 272 270 254 231 189 198 190 205 203 180 160 162 152 153 150 146 135 119 107 107 110 104 110 44 11 9 316 344 349 16 356 339 341
212 214 220 224 225 249 270 263 252 260 273 278 263 272 209 176 183 190 189 185 176 153 151 145 150 150 152 137 126 142 132 117 117 122 82 6 335 343 3 358 349 323 352 344
219 212 216 231 226 230 241 287 282 268 267 270 259 268 208 174 181 181 176 174 167 154 155 148 151 150 151 137 133 142 129 118 108 98 122 248 355 353 348 339 333 325 334 311
232 209 206 217 226 227 239 269 267 254 262 260 247 253 205 189 165 165 160 160 156 154 150 146 142 141 140 132 133 143 136 120 112 142 180 170 83 342 331 334 336 319 307 309
210 191 187 198 205 197 230 255 289 283 257 267 222 217 155 106 102 129 147 152 152 149 149 147 146 146 144 143 147 155 148 143 151 205 250 152 123 307 323 335 320 318 331 351
190 174 176 193 220 233 228 235 237 311 290 282 232 205 112 113 99 95 119 131 141 148 148 151 151 149 152 153 156 164 158 159 163 200 246 51 95 5 2 332 316 328 340 10
326 139 154 174 227 275 256 233 221 247 267 267 211 141 125 127 132 149 149 139 152 156 153 156 155 153 157 157 163 171 162 163 170 190 185 111 62 56 351 314 322 349 341 3
302 149 167 160 230 235 268 291 275 276 318 313 317 106 125 139 153 169 171 166 168 163 159 160 159 160 160 158 163 166 164 169 176 182 176 144 146 133 281 309 343 344 341 10
304 243 175 182 216 226 222 247 267 283 281 297 332 21 73 113 138 167 180 168 165 161 161 161 159 158 158 159 162 167 173 177 167 173 168 149 161 190 256 286 319 311 328 344
315 299 214 214 212 269 279 285 292 298 312 309 298 30 108 112 124 157 167 154 158 159 160 159 155 155 160 166 169 173 177 175 164 165 167 154 165 167 219 307 319 321 337 342
344 315 297 211 185 217 246 254 273 287 284 279 287 249 148 143 155 161 165 159 160 162 161 158 156 160 165 170 174 177 174 164 158 158 167 164 165 156 188 283 312 316 320 330
294 278 279 281 293 278 256 260 265 269 273 281 290 305 295 280 161 169 167 168 170 173 170 164 160 166 169 175 177 178 167 159 161 163 169 170 163 154 190 263 297 321 334 340
263 276 276 271 274 278 272 269 266 266 272 279 292 302 312 316 294 201 177 177 177 177 177 170 168 173 172 180 179 173 166 164 168 166 167 169 166 152 160 285 293 31 346 339
265 284 290 286 278 275 271 261 256 257 264 270 278 285 297 313 313 253 194 182 188 187 186 183 177 175 177 181 173 165 168 171 167 166 166 161 169 154 158 223 309 45 333 327
281 282 290 292 291 283 271 273 265 262 264 267 276 288 313 314 314 287 258 188 195 196 186 185 182 180 183 181 173 170 174 171 171 167 159 160 172 158 167 194 184 215 228 297
273 284 286 285 288 277 280 299 296 288 287 286 286 306 321 320 315 293 270 190 185 182 176 179 186 180 179 174 169 169 169 169 173 167 162 164 173 166 169 183 208 238 228 185
250 265 275 278 281 278 279 282 298 298 297 310 304 308 318 318 292 289 21 81 141 158 159 165 179 174 174 170 167 168 170 171 172 169 168 167 168 165 170 184 208 231 241 227
241 248 257 269 278 282 314 11 27 307 279 354 353 348 347 336 314 8 27 52 94 115 132 144 163 171 172 168 163 169 174 172 172 169 170 164 162 166 176 184 196 211 231 241
228 230 238 256 266 275 337 353 320 280 356 28 28 18 5 353 352 351 3 36 80 117 135 147 166 176 175 166 164 177 180 176 167 162 162 158 160 169 176 175 179 202 219 241
285 281 263 260 265 282 23 359 345 3 18 20 14 8 359 351 349 349 356 9 115 144 154 164 176 181 177 172 175 184 180 164 152 154 159 161 166 177 172 164 179 198 210 228
280 289 300 299 316 26 26 8 10 3 358 359 356 357 343 331 327 326 321 307 246 183 175 176 180 181 182 182 187 187 171 154 151 156 162 167 171 171 158 160 174 189 202 215
295 313 305 296 294 322 340 346 352 353 349 343 339 336 329 319 315 314 307 293 265 206 185 182 184 189 195 191 192 182 164 160 162 168 171 172 173 166 153 147 155 149 161 202
305 309 297 294 305 309 314 326 332 331 330 330 330 326 321 315 310 307 303 293 261 221 193 191 200 202 200 191 187 177 171 173 176 178 176 174 168 158 144 131 116 138 129 150
275 281 279 283 302 303 312 334 336 324 320 323 321 317 315 309 304 301 295 292 273 233 205 209 213 211 203 193 189 182 177 181 184 184 179 171 163 158 153 147 129 74 105 110